Location: Makakahi
(40.6833°S, 175.6000°E)
Time: 05:05:16
(UTC+00:00)

CZ-4 DEB - Visible Passes

Search period start: 08 December 2025 00:00
Search period end: 18 December 2025 00:00
Orbit: 783 x 970 km, 99.1° (Epoch: 06 December)

Date Brightness Start Highest point End Pass type
(mag) Time Alt. Az. Time Alt. Az. Time Alt. Az.
08 Dec ? 08:10:57 10° SE 08:15:25 21° E 08:19:53 10° NE visible
08 Dec ? 09:50:58 10° S 09:56:55 61° WSW 10:02:57 10° NNW visible
09 Dec ? 08:06:56 10° SE 08:11:11 19° E 08:15:26 10° NE visible
09 Dec ? 09:46:45 10° S 09:52:45 66° WSW 09:58:49 10° NNW visible
09 Dec ? 11:31:21 10° SW 11:32:49 11° SW 11:34:19 10° WSW visible
10 Dec ? 09:42:31 10° S 09:48:34 71° WSW 09:54:40 10° NNW visible
10 Dec ? 11:26:35 10° SW 11:28:43 12° SW 11:30:51 10° WSW visible
11 Dec ? 09:38:18 10° S 09:44:23 77° WSW 09:50:32 10° NNW visible
11 Dec ? 11:21:59 10° SSW 11:24:36 13° SW 11:27:13 10° W visible
12 Dec ? 09:34:05 10° SSE 09:40:12 83° WSW 09:46:22 10° NNW visible
12 Dec ? 11:17:27 10° SSW 11:20:28 14° WSW 11:23:29 10° W visible
13 Dec ? 09:29:52 10° SSE 09:36:01 89° WSW 09:42:11 10° NNW visible
13 Dec ? 11:13:00 10° SSW 11:16:20 15° WSW 11:19:42 10° W visible
14 Dec ? 09:25:39 10° SSE 09:31:50 86° ENE 09:37:59 10° NNW visible
14 Dec ? 11:08:34 10° SSW 11:12:12 17° WSW 11:15:52 10° W visible
15 Dec ? 09:21:27 10° SSE 09:27:37 80° ENE 09:33:46 10° N visible
15 Dec ? 11:04:09 10° SSW 11:08:04 18° WSW 11:11:59 10° W visible
16 Dec ? 09:17:15 10° SSE 09:23:25 74° ENE 09:29:33 10° N visible
16 Dec ? 10:59:45 10° SSW 11:03:55 19° WSW 11:08:05 10° WNW visible
17 Dec ? 09:13:03 10° SSE 09:19:13 69° ENE 09:25:19 10° N visible
17 Dec ? 10:55:23 10° SSW 10:59:46 21° WSW 11:04:08 10° WNW visible
